Вернуться в каталог

AMC-2

GE-2

АктивенСвязьGEO
NORAD 24713·PAYLOAD·🇱🇺 Luxembourg

Запущен Jan 30, 1997 с Guiana Space Centre

Loading…

TLE

СвежийSource: Space-Track

Эпоха: Sep 14, 2026, 06:43 UTC

1 24713U 97002A   26257.28036433 -.00000269  00000-0  00000-0 0  9994
2 24713  10.9957  44.3934 0006717 154.6913 206.6501  0.99471552108312

Отслеживайте AMC-2 в реальном времени с AllMySat

Download on the App Store